Location: Gradaro
(45.0833°N, 10.8833°E)
Time: 00:34:33
(UTC+00:00)

Cosmos 2263 Rocket - Pass Details

Date: 23 April 2021
Orbit: 824 x 848 km, 71.0° (Epoch: 15 May)

Event Time Altitude Azimuth Distance (km) Brightness Sun altitude
Exits shadow 23:57:55 - 286° (WNW) 2,854 5.0 -31.6°
Reaches altitude 10° 00:00:36 10° 309° (NW) 2,432 4.8 -31.5°
Maximum altitude 00:02:00 11° 324° (NW) 2,371 5.0 -31.4°
Drops below altitude 10° 00:03:25 10° 339° (NNW) 2,437 5.2 -31.3°
Sets 00:08:11 0° 15° (NNE) 3,379 6.5 -31.1°
